Temp
71 71 72 73 73 74 74 74 73 73 73 72 71 71 71 71 71 70 69 68 67 66 65 64 64 66 61
69 67 69 70 71 72 71 70 69 69 70 70 68 70 71 71 70 69 68 67 66 64 63 62 62 63 61
70 69 66 67 68 68 68 66 64 65 65 64 65 68 70 70 69 68 67 66 64 62 61 61 62 58 59
74 69 68 68 67 67 66 64 64 64 63 65 62 65 67 67 68 68 66 64 60 53 53 59 55 58 57
70 67 68 68 69 67 68 67 67 64 62 60 57 58 57 60 58 60 57 53 54 55 55 55 56 56 53
67 66 66 67 66 69 68 66 67 65 59 58 56 56 56 54 54 53 51 52 54 56 55 55 55 53 52
66 66 66 65 67 68 69 66 64 62 58 57 56 56 55 54 54 52 51 52 52 54 54 54 54 53 54
67 66 66 65 65 67 68 64 63 62 58 56 55 55 55 54 53 52 50 50 50 51 52 53 53 52 53
66 65 65 64 65 63 63 63 62 61 58 56 54 54 54 54 53 51 51 50 49 51 50 51 51 52 52
65 64 64 63 63 62 62 62 62 61 59 56 54 53 53 52 51 49 48 47 47 47 46 47 48 50 51
64 63 63 63 61 61 61 60 60 60 59 56 53 53 53 50 49 50 47 47 46 46 48 46 47 46 48
61 60 59 59 60 60 60 60 62 59 58 55 53 52 51 48 47 47 47 47 46 46 52 49 46 46 46
57 55 55 55 57 57 58 61 61 58 57 54 52 51 49 49 49 48 46 46 45 45 42 42 43 45 46
56 56 55 55 54 56 57 58 61 59 57 54 51 50 48 46 46 47 46 43 43 46 41 39 36 40 42
54 55 54 53 51 51 52 53 54 58 56 56 52 50 48 47 47 46 46 47 40 43 45 43 37 36 37
52 51 50 48 48 49 51 51 51 53 53 54 53 50 48 46 45 44 47 48 43 44 41 46 42 41 37
MSLP
1014.88 1015.18 1015.56 1015.88 1016.13 1016.40 1016.70 1017.06 1017.46 1017.76 1017.95 1018.41 1019.09 1019.32 1019.57 1019.82 1020.02 1020.28 1020.59 1020.76 1021.04 1021.16 1021.35 1021.39 1021.24 1021.18 1021.14
1014.62 1014.88 1015.21 1015.60 1015.89 1016.23 1016.53 1016.91 1017.30 1017.65 1017.87 1018.31 1018.97 1019.21 1019.41 1019.67 1019.99 1020.38 1020.71 1021.01 1021.21 1021.40 1021.54 1021.47 1021.40 1021.45 1021.38
1014.20 1014.55 1015.01 1015.33 1015.70 1016.10 1016.50 1016.90 1017.24 1017.54 1017.82 1018.36 1018.84 1019.16 1019.34 1019.59 1019.95 1020.38 1020.73 1021.08 1021.43 1021.65 1021.62 1021.50 1021.45 1021.55 1021.61
1013.52 1014.02 1014.65 1015.06 1015.42 1015.84 1016.32 1016.81 1017.16 1017.43 1017.82 1018.27 1018.76 1019.13 1019.38 1019.65 1019.98 1020.38 1020.78 1021.20 1021.48 1021.74 1021.75 1021.70 1021.77 1021.65 1021.83
1013.23 1013.69 1014.27 1014.73 1015.10 1015.50 1015.80 1016.33 1016.77 1017.16 1017.54 1018.07 1018.77 1019.20 1019.53 1019.74 1020.20 1020.58 1021.05 1021.36 1021.54 1021.54 1021.57 1021.65 1021.71 1021.84 1022.07
1012.94 1013.27 1013.76 1014.24 1014.74 1015.16 1015.52 1015.85 1016.24 1016.82 1017.53 1017.87 1018.47 1018.98 1019.47 1019.87 1020.31 1020.70 1021.24 1021.50 1021.42 1021.44 1021.62 1021.84 1021.91 1022.09 1022.24
1012.73 1012.92 1013.27 1013.72 1014.18 1014.65 1015.08 1015.40 1015.78 1016.40 1017.27 1017.73 1018.26 1018.76 1019.19 1019.58 1019.98 1020.60 1021.07 1021.31 1021.48 1021.58 1021.74 1021.95 1022.07 1022.19 1022.32
1012.14 1012.64 1012.94 1013.24 1013.59 1014.08 1014.58 1014.85 1015.26 1015.97 1016.82 1017.52 1018.08 1018.48 1018.81 1019.24 1019.82 1020.28 1020.78 1021.27 1021.58 1021.71 1021.87 1021.96 1022.08 1022.16 1022.28
1011.85 1012.33 1012.68 1012.97 1013.26 1013.66 1014.00 1014.36 1014.94 1015.61 1016.40 1017.21 1017.90 1018.29 1018.62 1019.09 1019.69 1020.30 1020.82 1021.22 1021.62 1021.73 1021.91 1022.00 1022.08 1022.09 1022.16
1011.81 1012.29 1012.64 1012.91 1013.20 1013.55 1013.89 1014.27 1014.76 1015.38 1015.94 1016.73 1017.54 1018.06 1018.38 1018.86 1019.43 1020.15 1020.84 1021.33 1021.60 1021.78 1022.10 1022.28 1022.32 1022.31 1022.40
1011.58 1012.14 1012.51 1012.78 1013.15 1013.48 1013.91 1014.30 1014.74 1015.27 1015.84 1016.51 1017.18 1017.67 1018.04 1018.66 1019.24 1019.88 1020.57 1020.97 1021.51 1021.80 1022.02 1022.28 1022.47 1022.67 1022.63
1011.53 1012.21 1012.69 1012.92 1013.19 1013.34 1013.83 1014.28 1014.64 1015.31 1015.84 1016.32 1017.00 1017.50 1017.90 1018.60 1019.17 1019.60 1020.02 1020.58 1020.89 1021.20 1021.55 1022.09 1022.43 1022.68 1022.71
1012.22 1012.74 1013.10 1013.34 1013.56 1013.71 1013.86 1014.15 1014.56 1015.06 1015.67 1016.34 1016.85 1017.31 1017.79 1018.35 1018.72 1019.16 1019.72 1020.22 1020.74 1021.07 1022.24 1022.86 1022.80 1022.61 1022.62
1013.03 1013.18 1013.28 1013.51 1013.63 1013.78 1013.83 1014.18 1014.49 1015.00 1015.55 1016.20 1016.80 1017.39 1017.86 1018.35 1018.70 1018.94 1019.22 1020.07 1020.48 1020.58 1021.33 1022.46 1023.12 1023.22 1022.79
1014.28 1013.85 1013.67 1013.68 1014.13 1014.51 1014.67 1014.75 1014.89 1014.97 1015.57 1016.16 1016.63 1017.03 1017.57 1018.05 1018.55 1018.85 1018.93 1019.04 1019.67 1020.11 1019.81 1020.38 1021.96 1022.35 1022.88
1015.25 1015.27 1015.42 1015.17 1015.24 1015.25 1014.95 1015.06 1015.43 1015.50 1015.66 1015.78 1016.30 1016.79 1017.21 1017.63 1017.95 1018.12 1018.47 1018.75 1019.16 1019.56 1020.07 1019.55 1019.68 1019.90 1021.19
Wind_Speed
11 13 12 13 13 14 15 14 12 11 11 11 8 9 8 7 7 7 7 7 7 7 6 5 5 8 6
8 11 12 12 12 12 13 13 12 10 11 10 9 8 9 9 9 9 8 7 6 6 4 3 5 8 4
9 9 11 13 12 11 11 11 9 5 7 9 8 9 9 10 10 9 9 8 8 5 2 1 4 2 4
9 8 9 7 6 6 7 7 5 6 6 7 7 9 9 10 10 10 9 8 7 3 3 2 1 2 3
7 4 5 5 6 5 8 9 6 5 5 5 4 4 4 7 4 5 5 3 5 3 2 3 3 2 2
4 4 5 5 5 6 7 7 8 5 4 5 4 5 5 4 5 5 4 4 3 3 4 4 3 3 2
7 5 5 5 7 9 7 7 6 6 5 5 5 5 4 5 5 5 5 4 4 4 3 4 4 4 3
7 8 6 4 5 8 9 6 8 6 5 5 5 5 5 6 5 5 5 5 4 4 4 4 4 4 4
8 7 5 5 5 5 5 7 8 7 7 7 5 5 5 5 7 5 4 4 4 3 4 3 3 3 3
6 5 4 3 4 3 4 4 7 7 8 7 5 5 5 5 5 5 4 4 4 4 3 3 3 2 2
6 4 5 5 3 4 3 4 7 7 7 6 5 5 6 5 5 6 3 5 4 4 4 3 3 3 2
3 1 0 2 3 3 3 3 7 6 7 6 5 6 6 6 5 5 6 4 4 5 5 4 3 3 2
4 2 1 1 1 1 2 3 5 6 7 6 4 6 5 8 8 8 5 7 4 5 5 3 2 2 3
4 3 3 2 2 0 2 2 2 5 6 5 5 5 6 5 6 8 6 4 3 7 5 4 2 3 3
11 5 4 4 4 4 4 2 1 4 4 5 6 6 7 5 6 6 8 11 5 6 7 7 4 6 3
12 8 7 4 3 2 1 2 2 1 2 5 6 6 6 5 6 7 7 9 5 9 1 6 1 4 5
Wind_Direction
188 187 190 191 192 188 177 168 166 168 151 147 185 175 167 165 153 136 131 122 115 102 88 61 28 13 73
198 197 190 194 194 194 173 166 165 164 147 156 172 178 177 172 158 151 145 136 121 112 103 61 7 354 56
194 192 197 196 190 177 170 169 158 155 152 150 169 177 186 171 163 156 154 144 129 118 106 11 6 31 61
194 176 182 180 181 174 170 164 171 161 156 162 168 176 177 155 162 165 157 143 156 163 187 229 106 69 71
197 168 179 180 180 185 182 169 181 161 162 154 138 153 144 143 146 149 134 169 220 161 143 105 104 72 97
186 190 167 175 188 205 195 178 179 162 170 157 145 161 152 158 161 150 164 209 141 96 107 99 78 64 68
196 193 187 179 182 201 214 192 170 163 160 151 157 160 166 159 162 160 163 159 156 147 134 128 106 89 73
194 196 192 191 183 183 204 188 167 159 151 160 171 173 169 157 160 151 158 167 169 154 149 139 132 126 111
196 196 206 190 194 183 183 175 163 157 157 161 170 174 166 153 147 144 156 154 147 156 152 140 125 120 124
198 193 188 213 192 196 180 166 163 165 160 163 166 176 165 146 146 147 156 155 161 159 150 167 135 121 117
181 184 187 191 194 184 180 165 164 170 172 157 166 173 161 152 151 155 160 153 162 164 159 150 149 144 174
120 120 339 160 190 166 182 171 165 168 179 159 167 172 159 152 161 166 164 176 161 164 142 134 152 166 181
53 99 70 176 172 140 145 179 171 163 173 175 171 171 162 173 179 177 161 167 165 145 91 36 1 175 193
27 18 64 44 28 88 148 147 176 163 167 173 172 178 171 160 180 181 166 152 151 169 143 128 175 316 272
0 12 21 44 36 20 17 29 18 114 150 178 191 185 177 171 191 194 186 177 163 204 187 149 144 210 136
15 19 21 32 48 5 256 112 63 25 241 191 197 207 196 188 192 193 192 195 155 189 257 243 359 148 159